| time (UTC) | temp F | wind direction | speed knots | gust knots | rain 1hr in | rain 24hr in | rain mn in | humidity % | barometer mb |
| 20260905020040 | 76 | 244 | 0.0 | 2.6 | 0.00 | 0.47 | 0.47 | 84 | 1011.2 |
| 20260905014538 | 76 | 211 | 0.0 | 3.5 | 0.00 | 0.47 | 0.47 | 84 | 1010.7 |
| 20260905013039 | 76 | 257 | 1.7 | 3.5 | 0.00 | 0.47 | 0.47 | 84 | 1010.6 |
| 20260905011542 | 76 | 196 | 0.0 | 1.7 | 0.00 | 0.47 | 0.47 | 84 | 1010.5 |
| 20260905010036 | 77 | 263 | 0.0 | 0.0 | 0.00 | 0.47 | 0.47 | 84 | 1010.2 |
| 20260905004547 | 77 | 250 | 0.0 | 3.5 | 0.00 | 0.47 | 0.47 | 83 | 1010.0 |
| 20260905003034 | 77 | 184 | 0.9 | 6.1 | 0.00 | 0.47 | 0.47 | 83 | 1009.9 |
| 20260905001548 | 77 | 193 | 2.6 | 6.1 | 0.00 | 0.47 | 0.47 | 84 | 1009.7 |
| 20260905000040 | 77 | 319 | 1.7 | 7.0 | 0.00 | 0.47 | 0.47 | 83 | 1010.3 |
| 20260904234541 | 78 | 269 | 4.3 | 9.6 | 0.00 | 0.47 | 0.47 | 82 | 1010.6 |
| 20260904233044 | 79 | 229 | 4.3 | 10.4 | 0.00 | 0.47 | 0.47 | 80 | 1010.5 |
| 20260904231545 | 80 | 286 | 0.9 | 6.1 | 0.00 | 0.47 | 0.47 | 79 | 1010.4 |
| 20260904230037 | 80 | 294 | 0.0 | 0.0 | 0.00 | 0.47 | 0.47 | 79 | 1010.0 |
| 20260904224547 | 80 | 182 | 0.0 | 5.2 | 0.00 | 0.47 | 0.47 | 79 | 1010.1 |
| 20260904223055 | 81 | 180 | 3.5 | 7.8 | 0.00 | 0.47 | 0.47 | 80 | 1010.4 |
| 20260904221537 | 81 | 180 | 1.7 | 6.1 | 0.00 | 0.47 | 0.47 | 80 | 1010.3 |
| 20260904220037 | 83 | 244 | 7.0 | 12.2 | 0.00 | 0.47 | 0.47 | 77 | 1010.8 |
| 20260904214541 | 84 | 310 | 3.5 | 8.7 | 0.00 | 0.47 | 0.47 | 73 | 1011.9 |
| 20260904213044 | 85 | 5 | 2.6 | 7.0 | 0.00 | 0.47 | 0.47 | 69 | 1011.4 |
| 20260904211542 | 85 | 56 | 2.6 | 10.4 | 0.00 | 0.47 | 0.47 | 70 | 1010.8 |
| 20260904210056 | 89 | 345 | 1.7 | 4.3 | 0.00 | 0.47 | 0.47 | 67 | 1010.6 |
| 20260904204540 | 89 | 355 | 1.7 | 4.3 | 0.00 | 0.47 | 0.47 | 66 | 1010.5 |
| 20260904203041 | 89 | 334 | 0.0 | 5.2 | 0.00 | 0.47 | 0.47 | 66 | 1010.8 |
| 20260904201543 | 90 | 344 | 1.7 | 4.3 | 0.00 | 0.47 | 0.47 | 65 | 1010.7 |
| 20260904200041 | 91 | 25 | 0.0 | 2.6 | 0.00 | 0.47 | 0.47 | 61 | 1009.9 |
| 20260904194546 | 91 | 11 | 0.9 | 7.0 | 0.00 | 0.47 | 0.47 | 61 | 1010.8 |
| 20260904193052 | 92 | 18 | 2.6 | 7.0 | 0.00 | 0.47 | 0.47 | 60 | 1011.1 |
| 20260904191550 | 92 | 279 | 5.2 | 9.6 | 0.00 | 0.47 | 0.47 | 59 | 1011.1 |
| 20260904190043 | 92 | 312 | 3.5 | 7.0 | 0.00 | 0.47 | 0.47 | 59 | 1011.1 |
| 20260904184540 | 93 | 279 | 2.6 | 9.6 | 0.00 | 0.47 | 0.47 | 59 | 1011.5 |
| 20260904183039 | 92 | 355 | 4.3 | 8.7 | 0.00 | 0.47 | 0.47 | 59 | 1011.7 |
| 20260904181542 | 91 | 279 | 2.6 | 7.8 | 0.00 | 0.47 | 0.47 | 60 | 1012.0 |
| 20260904180042 | 91 | 245 | 4.3 | 8.7 | 0.00 | 0.47 | 0.47 | 61 | 1012.0 |
| 20260904174548 | 91 | 333 | 1.7 | 7.0 | 0.00 | 0.47 | 0.47 | 60 | 1012.5 |
| 20260904173052 | 90 | 40 | 0.0 | 4.3 | 0.00 | 0.47 | 0.47 | 60 | 1012.8 |
| 20260904171541 | 90 | 5 | 1.7 | 7.0 | 0.00 | 0.47 | 0.47 | 61 | 1012.7 |
| 20260904170050 | 89 | 41 | 5.2 | 8.7 | 0.00 | 0.47 | 0.47 | 61 | 1012.6 |
| 20260904164549 | 89 | 22 | 7.0 | 11.3 | 0.00 | 0.47 | 0.47 | 61 | 1012.9 |
| 20260904163050 | 89 | 355 | 4.3 | 10.4 | 0.00 | 0.47 | 0.47 | 63 | 1013.0 |
| 20260904161540 | 88 | 19 | 4.3 | 8.7 | 0.00 | 0.47 | 0.47 | 63 | 1013.2 |
| 20260904160052 | 88 | 360 | 3.5 | 7.8 | 0.00 | 0.47 | 0.47 | 64 | 1013.2 |
| 20260904154539 | 87 | 26 | 5.2 | 10.4 | 0.00 | 0.47 | 0.47 | 65 | 1013.1 |
| 20260904153047 | 87 | 10 | 5.2 | 8.7 | 0.00 | 0.47 | 0.47 | 66 | 1013.2 |
| 20260904151549 | 86 | 298 | 0.0 | 5.2 | 0.00 | 0.47 | 0.47 | 71 | 1013.2 |
| 20260904150053 | 84 | 341 | 0.0 | 4.3 | 0.00 | 0.47 | 0.47 | 74 | 1013.4 |
| 20260904144604 | 84 | 19 | 0.9 | 3.5 | 0.00 | 0.47 | 0.47 | 76 | 1013.3 |
| 20260904143056 | 82 | 40 | 0.9 | 4.3 | 0.00 | 0.47 | 0.47 | 79 | 1013.4 |
| 20260904141545 | 81 | 333 | 1.7 | 5.2 | 0.00 | 0.47 | 0.47 | 81 | 1013.2 |
| 20260904140042 | 80 | 352 | 0.9 | 4.3 | 0.00 | 0.47 | 0.47 | 83 | 1013.1 |
| 20260904134551 | 79 | 14 | 0.0 | 4.3 | 0.00 | 0.47 | 0.47 | 85 | 1013.2 |
| 20260904133040 | 78 | 40 | 3.5 | 7.0 | 0.00 | 0.47 | 0.47 | 87 | 1013.1 |
| 20260904131538 | 77 | 26 | 2.6 | 7.8 | 0.00 | 0.47 | 0.47 | 90 | 1013.0 |
| 20260904130049 | 76 | 27 | 5.2 | 9.6 | 0.00 | 0.47 | 0.47 | 92 | 1012.8 |
| 20260904124543 | 76 | 51 | 2.6 | 8.7 | 0.00 | 0.47 | 0.47 | 93 | 1012.7 |
| 20260904123041 | 75 | 23 | 3.5 | 6.1 | 0.00 | 0.47 | 0.47 | 94 | 1012.5 |
| 20260904121540 | 74 | 282 | 0.0 | 2.6 | 0.00 | 0.47 | 0.47 | 94 | 1012.5 |
| 20260904120051 | 74 | 323 | 0.0 | 0.0 | 0.00 | 0.47 | 0.47 | 94 | 1012.4 |
| 20260904114543 | 73 | 239 | 0.0 | 0.0 | 0.00 | 0.47 | 0.47 | 95 | 1012.2 |
| 20260904113043 | 73 | 234 | 0.0 | 0.0 | 0.00 | 0.47 | 0.47 | 95 | 1012.0 |
| 20260904111542 | 72 | 222 | 0.0 | 0.0 | 0.00 | 0.47 | 0.47 | 94 | 1011.8 |
| 20260904110050 | 72 | 350 | 0.0 | 0.0 | 0.00 | 0.47 | 0.47 | 94 | 1011.8 |
| 20260904104544 | 72 | 350 | 0.0 | 0.0 | 0.00 | 0.47 | 0.47 | 94 | 1011.7 |
| 20260904103052 | 72 | 190 | 0.0 | 0.0 | 0.00 | 0.47 | 0.47 | 94 | 1011.5 |
| 20260904101542 | 72 | 190 | 0.0 | 0.0 | 0.00 | 0.47 | 0.47 | 94 | 1011.5 |
| 20260904100051 | 72 | 206 | 0.0 | 0.0 | 0.00 | 0.47 | 0.47 | 94 | 1011.4 |
| 20260904094553 | 72 | 188 | 0.0 | 0.0 | 0.00 | 0.47 | 0.47 | 94 | 1011.3 |
| 20260904093054 | 72 | 222 | 0.0 | 3.5 | 0.00 | 0.47 | 0.47 | 94 | 1011.3 |
| 20260904091553 | 72 | 177 | 0.0 | 2.6 | 0.00 | 0.47 | 0.47 | 94 | 1011.4 |
| 20260904090053 | 73 | 154 | 1.7 | 4.3 | 0.00 | 0.47 | 0.47 | 94 | 1011.4 |
| 20260904084552 | 73 | 148 | 0.9 | 5.2 | 0.01 | 0.47 | 0.47 | 94 | 1011.5 |
| 20260904083044 | 73 | 146 | 0.9 | 2.6 | 0.01 | 0.47 | 0.47 | 94 | 1011.5 |
| 20260904081555 | 73 | 131 | 0.0 | 0.0 | 0.01 | 0.47 | 0.47 | 94 | 1011.5 |
| 20260904080052 | 72 | 355 | 0.0 | 0.0 | 0.02 | 0.47 | 0.47 | 94 | 1011.6 |
| 20260904074601 | 73 | 355 | 0.0 | 2.6 | 0.03 | 0.45 | 0.45 | 94 | 1011.3 |
| 20260904073045 | 73 | 15 | 0.0 | 3.5 | 0.04 | 0.45 | 0.45 | 93 | 1011.1 |
| 20260904071611 | 73 | 346 | 0.0 | 0.0 | 0.08 | 0.45 | 0.45 | 93 | 1011.2 |
| 20260904070106 | 73 | 260 | 1.7 | 3.5 | 0.09 | 0.45 | 0.45 | 92 | 1010.9 |
| 20260904064605 | 73 | 200 | 3.5 | 6.1 | 0.13 | 0.42 | 0.42 | 92 | 1011.0 |
| 20260904063054 | 73 | 281 | 0.0 | 0.0 | 0.17 | 0.41 | 0.41 | 92 | 1011.2 |
| 20260904061553 | 73 | 164 | 0.9 | 3.5 | 0.22 | 0.38 | 0.38 | 92 | 1011.2 |
| 20260904060054 | 73 | 139 | 0.9 | 6.1 | 0.35 | 0.35 | 0.35 | 92 | 1011.3 |
| 20260904054551 | 74 | 226 | 4.3 | 8.7 | 0.29 | 0.29 | 0.29 | 91 | 1011.9 |
| 20260904053100 | 74 | 232 | 1.7 | 3.5 | 0.22 | 0.22 | 0.22 | 90 | 1012.4 |
| 20260904051553 | 75 | 282 | 1.7 | 9.6 | 0.14 | 0.14 | 0.14 | 88 | 1013.3 |
| 20260904050107 | 77 | 298 | 8.7 | 23.5 | 0.00 | 0.00 | 0.00 | 82 | 1013.8 |
| 20260904044617 | 79 | 17 | 12.2 | 20.9 | 0.00 | 0.00 | 0.00 | 81 | 1014.1 |
| 20260904043105 | 82 | 17 | 10.4 | 20.9 | 0.00 | 0.00 | 0.00 | 87 | 1013.6 |
| 20260904041540 | 82 | 321 | 3.5 | 8.7 | 0.00 | 0.00 | 0.00 | 88 | 1012.4 |
| 20260904040041 | 83 | 17 | 2.6 | 7.0 | 0.00 | 0.00 | 0.00 | 87 | 1012.8 |
| 20260904034540 | 83 | 298 | 5.2 | 9.6 | 0.00 | 0.00 | 0.00 | 87 | 1012.0 |
| 20260904033049 | 83 | 319 | 0.9 | 3.5 | 0.00 | 0.00 | 0.00 | 87 | 1011.8 |
| 20260904031557 | 83 | 5 | 0.0 | 0.0 | 0.00 | 0.00 | 0.00 | 88 | 1011.6 |
| 20260904030040 | 83 | 5 | 0.0 | 0.0 | 0.00 | 0.00 | 0.00 | 87 | 1011.6 |
| 20260904024543 | 84 | 34 | 0.0 | 0.0 | 0.00 | 0.00 | 0.00 | 86 | 1011.6 |
| 20260904023042 | 85 | 165 | 0.0 | 0.9 | 0.00 | 0.00 | 0.00 | 84 | 1011.7 |
| 20260904021548 | 85 | 179 | 0.0 | 0.9 | 0.00 | 0.00 | 0.00 | 84 | 1011.8 |